RH
101 100 100 100 100 100 100 101 100 100 100 100 101 99 98 98 98 95 98 100 99 101 100 100 99 95 98 100 98 98 96 86 74 86 74 28 10 12 13 10 10 22 22 18 20 18 22 23 21 22 21 21 23 22 23 23 17 15 19 18 17 17 13 13 13 11 11 11 10 10 12 9 17 52 65 58 70 79 82 83 82 83 79 74 77 85 96 101
100 100 101 100 100 100 100 100 100 100 100 100 100 100 100 100 100 98 98 98 98 99 100 101 96 96 101 96 99 100 91 83 81 84 54 17 15 15 12 11 13 22 20 19 19 17 21 22 23 23 20 21 22 22 22 22 17 17 22 18 15 16 13 15 14 11 13 10 11 10 12 10 9 37 52 54 71 73 79 87 85 91 90 85 88 94 100 100
100 100 101 100 100 100 100 100 100 100 100 100 100 100 100 100 100 100 99 98 97 97 98 98 97 100 98 95 100 93 85 82 70 57 35 22 22 15 14 12 14 22 19 19 17 16 18 20 24 22 20 21 21 20 20 19 19 18 20 16 15 16 14 17 15 12 13 10 12 10 10 12 6 18 31 48 69 67 74 85 86 96 98 96 95 97 101 98
100 100 100 101 101 100 100 99 100 101 100 100 100 100 100 100 100 100 100 99 98 98 97 98 99 100 97 95 88 81 85 71 42 31 29 29 22 14 14 13 18 22 20 21 17 16 17 20 22 20 21 21 20 20 18 19 19 17 16 15 14 15 14 13 14 13 13 12 11 10 11 10 7 18 32 46 59 57 61 70 78 85 89 98 99 96 99 96
100 101 100 100 100 100 101 100 100 100 100 100 100 100 100 100 100 100 101 99 99 100 100 100 99 100 96 85 75 79 75 43 26 29 28 28 20 13 12 14 23 23 22 22 17 16 15 17 19 19 20 19 20 19 18 17 16 15 15 16 14 15 14 9 12 13 12 13 11 11 10 8 9 21 43 48 37 35 45 54 68 74 77 91 97 95 96 93
98 99 100 100 100 100 100 100 101 100 100 100 100 101 100 100 100 100 100 99 101 100 100 101 99 100 89 71 72 76 49 19 23 25 18 24 19 12 11 17 26 24 21 18 15 15 14 16 18 19 19 19 21 19 19 17 13 14 15 16 14 13 12 10 12 11 13 12 10 11 8 10 8 12 43 50 31 43 59 57 64 71 75 84 91 94 94 91
98 97 98 100 100 100 101 100 100 100 101 100 100 100 100 101 100 100 100 100 101 99 101 99 98 98 77 64 72 69 44 22 19 19 17 24 21 12 10 19 26 24 19 17 15 15 16 17 18 20 19 19 20 18 18 16 13 14 15 15 15 13 11 11 11 11 13 10 10 11 7 12 6 8 40 50 49 72 79 66 65 70 75 83 89 93 92 91
98 97 98 101 100 100 100 100 101 100 101 100 101 100 100 101 100 101 100 100 100 99 102 97 100 95 69 67 68 48 38 27 19 24 25 26 23 12 11 20 25 25 20 17 17 16 16 17 19 21 19 18 19 18 17 15 14 14 15 14 13 13 11 11 10 11 11 9 11 10 9 10 6 16 37 51 70 84 76 68 69 73 78 83 89 93 91 91
98 98 99 99 100 101 100 100 100 99 100 100 100 100 101 100 99 101 99 101 100 100 101 98 103 89 69 80 65 23 18 24 25 32 32 31 22 11 14 20 24 27 21 18 18 16 15 16 20 19 18 19 18 17 15 15 14 14 14 13 12 11 11 11 10 11 9 11 11 9 11 7 13 28 35 59 83 81 74 71 72 76 81 82 86 91 90 90
87 92 99 99 98 98 99 99 97 98 99 100 100 99 100 100 99 100 100 101 99 100 100 99 100 82 74 84 52 12 15 24 27 31 34 34 20 13 19 20 25 28 22 19 17 15 14 14 20 19 18 19 17 17 15 14 13 13 13 12 12 11 12 12 11 12 10 11 10 9 11 10 28 31 26 66 88 76 77 75 74 79 81 82 82 85 89 89
61 67 82 95 100 97 97 98 98 99 99 99 100 100 100 99 99 99 101 100 99 102 98 97 98 81 80 80 39 10 16 21 22 27 34 35 22 16 18 20 26 30 26 22 18 16 13 14 20 21 20 18 16 16 14 13 12 12 13 12 14 12 13 13 11 12 10 10 10 9 9 16 36 25 23 72 87 75 80 76 76 81 81 83 81 82 87 90
47 51 54 69 88 93 96 100 100 100 100 101 99 99 100 99 99 99 100 100 100 101 97 97 97 84 81 75 42 17 14 18 20 24 32 34 28 20 17 21 24 26 27 23 22 18 15 18 21 20 20 20 19 17 14 14 12 13 13 12 14 12 11 11 11 12 10 10 10 9 8 13 26 24 46 83 81 76 80 75 78 80 82 85 83 82 82 88
41 44 38 42 56 67 80 93 101 101 99 100 101 101 101 100 100 99 100 100 100 101 97 95 94 88 77 55 33 20 16 21 24 28 34 33 30 25 21 24 25 26 26 23 24 20 17 21 22 21 21 21 21 18 14 15 14 14 14 13 13 12 11 11 12 11 10 10 9 9 8 11 12 19 62 87 74 79 81 76 79 80 84 84 85 85 83 89
31 33 32 32 34 39 50 67 87 99 102 99 97 99 98 98 100 100 100 99 100 100 96 95 93 91 78 47 24 23 26 29 30 30 32 32 29 27 26 27 28 29 27 22 20 17 16 19 19 19 21 21 21 18 16 16 17 14 12 14 16 14 10 10 14 11 8 10 9 9 7 12 8 9 54 81 73 79 78 76 78 81 87 84 86 89 87 90
28 27 29 29 29 32 35 42 59 80 96 93 84 87 88 93 100 100 99 100 101 97 94 96 93 86 73 48 30 33 37 36 34 30 29 31 25 25 31 32 31 31 28 22 17 16 17 16 16 17 19 19 18 19 17 16 18 17 14 18 19 15 11 12 17 13 9 9 9 9 8 12 8 11 54 80 74 76 74 73 77 82 88 85 86 90 88 89
31 27 27 28 28 31 32 36 42 52 69 72 66 73 76 84 98 100 100 101 98 97 95 93 93 86 62 38 29 32 35 32 31 30 31 32 22 20 29 30 29 27 24 22 19 17 17 17 18 20 19 17 17 17 17 16 19 20 17 20 21 18 15 14 16 15 12 10 9 8 10 12 10 27 66 80 75 75 72 72 75 80 85 85 87 89 89 90
35 28 26 28 29 31 32 35 38 38 47 50 53 68 71 76 93 100 101 100 97 97 95 92 98 87 51 29 25 25 27 25 24 29 35 34 21 18 25 25 23 21 20 20 18 17 17 20 22 21 20 21 21 17 17 19 19 20 22 22 25 23 20 16 14 15 13 10 11 9 11 11 11 41 76 78 75 76 72 73 76 79 83 83 86 89 91 91
38 33 28 30 31 32 33 35 38 36 38 41 52 70 70 76 97 101 98 99 98 97 93 94 92 66 33 23 24 22 24 23 22 27 34 32 20 18 21 20 21 20 19 19 19 20 19 22 23 21 22 24 22 18 18 20 19 21 23 21 25 25 23 21 16 16 15 12 14 11 12 10 11 48 81 76 75 78 74 74 74 79 85 86 87 89 90 91
37 37 31 33 33 34 35 38 43 40 34 36 55 78 81 87 99 98 101 100 85 67 61 71 66 38 22 23 24 24 24 24 24 25 31 29 18 17 18 17 19 18 19 20 20 22 21 22 23 21 21 22 21 18 15 18 20 19 21 21 21 21 20 20 18 17 17 16 17 14 14 10 10 47 81 75 74 78 73 75 75 77 86 90 88 87 89 90
34 35 34 37 35 37 40 39 45 48 42 41 57 77 76 74 72 74 94 100 76 51 40 48 49 35 31 30 27 28 26 23 23 22 27 26 18 17 17 17 19 18 21 24 22 25 24 21 23 22 23 26 30 33 30 29 27 21 22 23 21 22 19 18 19 20 20 19 18 18 18 13 12 42 73 74 76 79 74 77 79 78 81 86 85 84 88 88
33 34 35 37 37 40 41 41 45 48 51 53 60 64 50 42 45 48 64 73 67 60 50 44 43 38 34 31 29 29 28 27 25 23 25 22 18 17 18 19 21 20 25 29 27 29 26 21 25 28 32 40 45 48 45 38 33 26 23 22 22 24 20 18 21 23 24 21 20 22 19 17 25 48 71 75 76 78 75 75 78 78 80 81 80 82 85 85
41 43 39 37 41 39 38 42 39 38 52 61 65 68 52 39 41 42 46 51 52 56 57 52 48 44 38 35 34 31 32 33 28 24 22 19 18 18 18 20 21 23 31 31 26 26 26 23 26 34 44 52 53 50 43 38 38 30 25 24 24 22 19 20 25 27 27 22 19 22 19 23 41 58 72 77 75 76 76 73 73 78 82 82 79 80 84 85
49 52 46 43 40 33 35 38 31 36 54 62 66 68 53 37 38 42 45 50 47 46 53 55 52 50 46 42 38 34 35 36 29 24 20 18 19 19 18 19 21 25 28 25 23 24 24 23 27 39 46 45 48 50 43 38 37 32 27 24 22 23 19 17 24 31 33 32 27 22 21 32 52 68 79 80 73 73 77 78 78 79 81 81 78 79 83 85
56 55 55 50 37 30 32 30 35 51 58 59 57 48 37 33 44 50 48 52 54 49 47 47 47 47 46 41 35 34 35 34 31 25 20 17 18 19 17 19 22 21 21 22 25 22 17 23 35 43 41 36 43 50 42 30 29 35 36 26 21 24 20 16 25 33 34 37 36 26 20 29 45 62 80 82 73 71 74 80 85 83 79 79 79 81 82 83
61 60 64 61 44 30 26 31 54 63 54 49 42 34 30 31 46 54 51 57 58 49 43 41 45 43 38 36 33 33 34 32 31 26 19 16 16 18 17 18 19 19 22 23 24 20 16 28 37 36 35 34 37 42 40 31 24 31 36 30 24 23 22 24 30 32 26 26 35 31 19 22 31 40 61 79 81 77 73 75 80 83 82 81 83 84 83 82
58 61 69 74 57 32 26 43 62 57 42 35 32 33 27 28 48 52 54 68 59 45 41 38 40 37 32 36 34 31 32 29 27 24 18 15 14 16 17 18 18 20 25 24 24 23 21 28 33 34 37 35 30 33 39 37 24 23 32 33 29 25 27 32 30 25 20 22 38 39 21 19 24 25 40 60 74 77 72 71 72 75 80 79 78 79 79 81
54 55 65 75 67 53 48 47 46 41 29 21 27 32 24 30 50 48 52 66 53 40 40 33 32 31 29 34 31 28 30 27 24 21 16 14 14 14 16 19 18 18 26 27 25 26 27 30 34 38 41 35 28 29 37 35 21 23 36 34 26 22 26 35 30 23 26 29 37 39 26 20 22 25 34 43 55 68 70 69 67 68 75 75 73 72 72 75
50 49 58 67 67 69 68 57 54 46 23 15 25 24 23 39 50 51 56 53 38 34 34 27 26 25 26 31 30 26 26 25 26 23 16 14 14 14 16 19 17 18 26 25 20 29 36 33 33 38 37 30 25 27 36 32 19 26 39 33 26 26 31 37 29 25 36 32 23 30 32 24 22 27 32 34 39 47 53 57 57 60 68 72 73 71 70 71
48 48 54 59 57 56 61 68 65 41 14 16 24 18 28 47 48 49 51 42 34 29 24 23 25 23 27 33 32 27 23 22 23 21 17 15 14 15 17 18 18 18 22 23 21 29 32 27 28 29 25 23 25 31 34 27 23 31 36 30 28 32 37 38 27 24 35 29 18 32 39 26 22 26 26 27 27 28 32 36 40 47 56 65 70 70 69 70
43 43 50 62 64 56 61 69 48 19 17 22 20 20 33 50 54 48 42 40 38 28 20 23 25 24 30 37 35 29 26 23 20 18 18 17 16 16 17 18 19 20 26 29 25 25 27 29 30 25 19 21 26 32 31 26 29 32 27 22 22 28 33 34 33 29 28 25 23 38 47 33 23 25 25 26 28 29 30 30 31 37 42 53 65 68 66 67
34 32 44 66 75 66 63 56 30 22 36 28 18 27 36 47 55 48 42 39 32 27 27 25 26 26 29 35 33 28 27 23 19 19 20 19 17 18 19 19 21 24 30 30 25 27 28 25 25 24 24 22 20 25 25 23 28 26 21 20 20 25 30 28 31 30 25 26 30 41 51 38 23 24 27 29 33 37 37 35 36 37 36 41 54 62 63 63
28 23 33 55 74 78 59 35 23 29 33 21 24 40 44 47 53 49 49 43 31 32 31 26 28 27 25 29 27 25 27 26 21 21 22 21 21 22 20 22 25 27 29 29 28 32 29 23 22 22 24 20 15 20 22 20 22 21 20 23 21 24 28 26 27 29 27 28 35 44 45 33 24 27 32 36 40 45 49 50 50 50 46 40 41 52 62 63
24 21 30 43 61 72 53 29 29 32 23 21 35 47 48 50 54 52 48 41 36 37 34 31 31 28 26 26 25 24 24 26 24 21 22 23 23 24 21 24 28 27 32 36 32 29 26 27 25 19 20 20 16 18 21 22 22 19 19 22 23 25 29 31 33 34 32 31 36 42 38 28 25 31 39 44 47 53 60 64 66 66 64 55 40 45 60 63
20 25 36 45 52 58 54 47 45 37 30 35 45 48 44 45 52 57 50 41 40 38 33 32 29 27 29 27 26 26 22 25 25 20 23 24 26 29 25 25 27 28 35 38 33 30 28 27 24 19 19 19 17 16 18 21 21 20 20 19 21 24 27 28 29 31 30 33 37 36 32 30 28 32 40 43 46 55 62 65 69 70 69 65 53 52 63 65
22 33 41 49 58 61 67 66 54 44 43 47 51 51 46 42 45 54 54 46 42 37 30 29 28 27 29 29 30 27 22 25 26 22 24 25 29 34 29 24 25 29 34 34 34 34 29 27 24 23 23 19 17 17 16 16 19 22 21 18 20 23 27 31 35 38 36 34 37 35 31 31 31 34 36 40 47 56 61 63 68 70 67 67 66 66 68 66
29 44 47 52 61 63 70 70 57 50 53 53 54 54 50 44 40 43 45 40 35 32 26 23 27 29 30 33 34 30 26 27 27 25 26 25 28 31 30 27 25 25 25 31 39 35 27 28 27 24 22 19 17 17 16 15 18 22 19 19 22 24 31 38 40 45 42 34 35 37 33 30 31 33 34 41 51 57 62 66 69 73 72 72 75 74 69 66
41 54 54 56 60 60 68 70 56 52 57 55 58 63 57 43 36 38 42 36 30 30 28 25 28 32 35 39 37 33 29 28 28 28 27 27 28 28 28 27 23 21 20 26 37 35 27 29 30 23 17 19 21 17 16 17 18 19 18 20 23 23 29 34 33 37 37 32 33 36 36 33 30 31 32 36 42 49 61 70 72 76 76 75 77 73 66 65
62 66 61 60 59 61 70 66 52 54 60 55 61 75 66 41 33 40 42 35 29 30 32 30 31 34 39 41 39 35 31 30 32 33 29 28 29 30 29 26 22 21 20 20 28 35 32 27 29 27 20 19 22 17 15 17 17 17 17 18 22 23 26 30 33 35 33 33 35 36 40 37 29 33 37 37 39 44 55 68 73 76 77 77 77 73 69 70
74 69 62 60 60 66 73 65 54 55 57 54 58 67 61 46 44 49 46 37 31 31 33 33 32 35 37 36 36 35 33 34 36 35 33 30 30 29 27 25 23 23 24 21 24 36 41 34 29 28 23 20 20 19 19 19 18 19 19 19 25 29 29 30 32 32 30 34 36 35 37 34 32 43 50 46 46 47 52 67 76 76 77 78 78 77 76 77
76 64 59 59 60 67 71 64 57 54 53 57 60 60 57 51 49 51 50 41 32 31 36 37 34 38 41 35 31 33 36 42 40 34 36 34 31 32 30 26 23 24 26 24 26 39 42 35 31 29 24 20 20 21 22 22 22 23 23 24 29 32 29 29 32 32 29 30 35 36 34 34 41 55 60 55 56 56 55 65 75 76 77 79 79 80 80 80
80 66 60 56 60 70 70 61 59 61 62 62 60 59 58 52 47 49 51 44 35 31 34 37 33 37 43 36 31 33 37 45 43 37 39 35 33 37 34 27 24 24 26 25 30 42 40 33 39 39 28 22 21 22 24 24 22 24 25 24 28 32 29 26 30 36 35 31 35 35 30 37 51 59 63 62 64 64 58 62 74 76 76 79 81 82 84 85
76 67 58 53 63 73 67 63 72 79 74 61 53 54 54 50 47 46 44 41 39 36 34 36 36 38 42 37 33 33 34 40 41 38 39 38 44 50 39 29 28 27 29 31 34 48 55 47 42 36 27 23 23 24 27 27 24 24 27 28 30 33 31 27 27 36 40 37 39 36 30 41 57 61 62 65 69 69 64 64 72 76 77 79 79 80 83 84
74 65 50 48 63 71 65 66 77 82 75 64 57 54 53 53 50 44 42 38 37 39 37 36 36 36 38 36 32 31 32 36 37 36 37 38 45 55 49 40 39 34 31 34 38 51 62 55 40 30 26 23 20 22 27 28 26 25 29 36 37 34 35 37 37 41 42 39 38 33 30 43 58 60 61 63 66 69 69 69 72 75 79 80 79 79 79 79
81 74 61 52 51 60 72 79 82 81 77 72 64 53 48 50 45 40 42 41 39 43 46 43 39 37 40 41 38 37 36 37 37 37 39 38 35 40 42 39 46 51 43 39 43 46 49 51 44 34 31 27 24 24 24 22 26 30 35 42 42 41 44 46 44 42 39 41 38 27 30 48 58 58 60 63 64 66 68 68 68 73 77 76 76 77 75 73
75 74 78 69 55 64 83 90 91 89 85 80 68 56 51 49 44 40 42 43 42 44 47 45 43 43 46 48 48 47 43 40 43 42 41 41 35 31 32 32 43 59 58 53 54 49 48 57 53 38 33 35 32 31 30 28 31 34 37 42 45 46 47 42 37 32 32 42 42 28 35 55 60 58 62 67 70 70 70 68 67 70 73 73 73 73 71 70
70 70 79 81 77 83 87 85 88 87 84 81 68 58 57 54 47 40 39 43 42 42 43 40 41 47 50 53 56 55 49 43 45 46 45 43 37 33 35 32 36 51 62 61 58 58 61 63 58 47 40 36 33 36 40 40 39 37 37 43 51 55 56 45 32 29 34 41 41 40 52 65 65 65 70 73 76 76 74 73 72 72 73 73 73 70 68 68
70 73 80 80 80 87 86 84 90 85 76 73 66 61 60 55 48 42 40 42 40 41 44 38 37 46 52 58 63 61 55 49 45 49 52 47 41 40 36 28 26 42 59 56 53 70 76 64 60 60 49 40 40 44 46 44 45 50 51 54 58 62 64 49 35 41 44 34 35 54 69 72 73 75 77 80 81 79 77 77 76 76 73 70 69 66 63 62
63 67 76 73 70 81 89 90 95 90 77 68 65 68 66 55 50 48 44 43 38 38 45 43 38 41 46 54 62 61 60 57 52 54 55 48 46 44 35 27 26 36 47 44 47 72 83 71 67 66 54 48 50 48 47 47 50 56 61 63 65 65 66 59 56 64 57 36 42 65 76 77 80 80 77 78 79 78 77 75 71 69 66 62 61 60 60 60
65 70 79 77 71 77 85 88 92 93 89 79 72 75 74 64 57 48 42 49 49 40 44 51 45 39 40 48 57 59 60 57 53 54 56 54 54 51 42 38 34 30 36 43 48 60 70 70 71 70 65 60 58 55 54 52 52 57 59 61 64 65 68 70 72 74 67 60 65 74 80 82 78 71 68 67 66 66 65 61 58 56 54 53 52 53 55 57
70 70 76 77 70 68 74 82 90 94 92 89 86 81 76 71 68 54 41 50 59 51 48 54 51 42 37 41 48 51 52 53 52 52 55 57 55 50 45 43 38 32 35 45 50 51 57 65 67 69 71 67 62 65 67 61 61 65 63 60 59 60 62 68 73 72 68 73 76 75 83 85 69 59 60 56 53 52 50 50 51 49 46 45 44 45 46 48
79 75 73 71 65 64 67 70 81 88 86 88 95 92 83 78 75 63 46 43 51 54 53 55 56 48 39 40 47 48 47 50 50 46 46 49 46 43 42 41 41 42 40 41 49 52 55 61 63 62 66 65 61 65 68 65 63 64 66 68 70 68 66 67 72 72 70 73 74 71 77 77 63 54 54 51 48 46 44 45 46 44 42 42 42 42 43 43
84 81 77 72 63 63 66 62 66 76 79 82 91 96 96 91 81 72 60 49 43 45 49 55 58 51 41 42 48 46 45 48 47 43 40 39 39 41 45 45 43 44 43 41 48 57 55 54 56 57 59 63 63 62 62 60 59 59 64 74 78 75 73 71 71 74 75 73 68 64 66 66 59 53 52 50 48 47 47 47 45 44 44 43 43 43 43 44
Wind_Speed
13 12 12 11 10 11 11 11 11 10 10 10 10 10 10 11 10 11 11 12 12 12 12 12 11 12 12 12 13 14 16 17 16 10 9 10 8 6 6 5 13 18 16 13 14 13 9 6 6 6 6 4 0 1 2 0 1 2 2 2 3 3 3 5 5 4 1 2 2 4 4 4 4 3 4 5 9 8 6 5 4 4 5 7 13 21 23 21
14 13 12 12 11 11 11 11 11 10 10 10 10 10 10 11 11 10 11 11 11 11 12 12 12 12 12 13 13 14 17 17 15 12 10 7 4 6 6 8 14 20 18 13 14 14 9 5 6 6 4 2 0 1 2 1 1 1 2 2 3 3 2 3 3 3 1 2 4 4 1 3 4 1 3 2 5 6 5 5 4 7 9 11 16 21 21 21
14 13 13 12 11 11 11 11 11 10 10 10 10 10 10 10 10 10 11 11 11 11 11 11 12 12 12 13 13 16 18 13 9 6 3 3 3 8 8 11 15 20 16 11 13 12 11 11 10 7 2 2 1 1 2 1 2 2 1 2 3 3 3 3 4 4 3 3 5 4 0 3 3 2 2 2 5 4 4 5 5 6 9 12 15 18 20 21
15 14 13 12 12 11 11 11 10 10 10 9 10 10 10 10 10 10 10 10 11 11 11 11 12 12 12 13 14 16 14 6 2 1 1 5 1 9 12 12 16 18 12 9 11 10 11 13 9 4 2 3 1 1 3 2 2 2 2 2 2 3 3 4 5 6 5 3 3 3 2 2 1 1 2 6 6 3 5 7 7 10 14 15 14 16 19 20
15 15 14 13 12 11 11 11 10 10 9 9 10 10 9 9 9 10 10 10 10 11 11 11 11 12 12 13 14 13 8 1 1 2 2 5 2 10 14 15 17 15 11 12 12 10 11 9 5 3 2 3 2 3 3 2 2 2 2 1 2 4 3 4 2 4 4 2 2 2 4 3 1 0 4 7 5 1 2 5 7 11 17 18 17 17 18 18
15 15 15 14 13 12 11 11 10 10 9 9 9 9 9 9 9 9 9 9 10 10 10 10 11 12 11 12 12 8 3 1 2 3 4 5 1 11 16 17 16 14 14 15 13 9 7 4 3 5 2 2 4 4 3 1 2 3 2 1 3 4 4 4 1 2 3 1 2 2 3 1 0 1 2 5 3 2 4 4 8 11 16 19 19 18 18 18
15 16 16 15 13 12 11 10 10 10 10 9 9 9 9 9 9 9 9 9 9 9 9 9 10 10 10 11 7 3 1 3 4 4 6 6 3 13 18 18 17 16 16 14 10 6 4 4 4 4 3 3 3 4 3 2 2 3 2 2 4 5 6 4 2 2 2 3 3 1 3 3 2 0 2 4 3 4 5 4 11 13 16 18 18 18 18 18
16 16 16 16 14 13 12 11 10 10 10 9 9 9 9 9 8 8 8 8 8 8 8 8 8 9 10 9 4 1 1 4 6 6 6 3 7 16 20 19 16 16 15 13 10 6 5 5 5 4 3 3 3 4 4 3 2 4 4 2 2 4 6 4 3 5 4 5 2 1 4 3 2 2 3 3 1 3 0 8 13 14 15 16 17 17 16 16
16 16 16 16 15 14 13 11 10 10 10 9 9 9 9 8 8 8 7 7 7 7 7 7 7 8 8 6 1 1 2 2 7 5 4 0 10 18 20 18 17 17 13 11 9 8 6 4 4 4 3 2 3 5 4 4 3 4 5 3 3 3 4 3 4 5 4 3 3 4 4 1 1 2 3 1 3 3 6 10 13 15 16 15 15 15 15 16
17 16 15 15 15 15 14 12 11 10 9 9 9 8 8 8 7 7 7 7 6 6 7 6 6 6 6 3 0 1 1 4 9 7 4 1 12 20 19 17 19 18 12 8 7 7 5 4 4 3 2 3 3 4 3 4 2 3 4 3 4 3 3 2 4 3 2 2 6 6 3 1 0 2 2 2 4 6 9 11 13 14 14 14 13 14 14 14
17 17 16 16 15 15 15 13 11 10 9 9 8 8 8 7 7 6 6 6 5 5 5 4 5 4 3 2 1 2 2 3 9 9 5 2 10 18 19 17 19 18 13 7 6 9 4 2 4 2 1 3 3 3 2 3 2 2 3 2 3 3 4 4 4 3 2 3 6 6 1 4 1 2 2 4 7 9 10 12 13 12 12 13 13 14 12 12
17 17 17 16 15 15 15 14 12 10 9 9 8 8 7 7 6 6 6 5 4 4 3 1 3 2 2 1 3 6 5 5 10 8 3 3 6 13 17 17 18 18 15 8 7 11 4 2 5 1 1 3 3 2 2 2 1 1 2 2 2 3 4 4 3 2 3 2 4 6 3 3 4 3 3 7 10 10 11 12 12 11 11 11 12 12 11 11
18 17 17 17 16 15 15 15 14 11 10 9 8 7 7 6 6 5 5 4 3 3 2 0 2 1 1 2 4 5 6 8 10 6 1 4 5 8 13 16 16 15 14 10 7 10 6 2 2 1 2 2 1 1 2 1 0 2 2 1 2 2 2 3 0 1 3 2 5 6 4 3 6 4 6 9 11 12 11 11 11 11 10 11 12 10 10 9
18 18 18 17 17 16 16 15 15 13 10 9 9 8 7 6 5 4 3 3 3 3 2 2 1 1 1 5 6 6 8 9 10 7 6 7 6 5 9 13 14 12 10 7 4 5 9 5 1 2 2 1 0 0 0 1 1 1 2 1 1 2 3 1 1 3 4 1 4 7 5 4 4 3 8 10 12 13 12 12 12 11 10 11 11 10 8 7
18 18 18 18 17 17 16 16 16 15 12 10 9 8 8 6 5 4 2 2 3 1 3 2 0 1 1 7 6 5 5 5 6 8 8 10 8 6 8 12 11 9 8 5 3 1 7 7 0 1 1 0 1 1 0 1 2 1 2 2 0 2 2 2 2 5 4 2 2 6 4 3 3 2 9 11 12 13 11 12 12 12 12 12 11 9 8 7
18 18 18 18 18 17 17 16 16 16 14 10 9 8 7 5 3 2 1 1 2 3 4 2 1 1 1 3 3 3 4 4 4 4 7 12 9 6 11 12 8 7 5 4 2 2 4 5 1 1 0 1 2 2 2 1 1 1 1 2 1 2 2 1 2 3 3 2 2 5 2 2 2 1 9 12 13 13 10 11 13 12 13 12 11 8 7 7
18 18 18 18 17 17 17 16 16 17 15 11 8 7 6 2 1 0 0 2 1 3 5 2 1 1 3 4 4 3 3 3 3 2 8 12 8 10 15 8 4 5 3 2 2 1 2 2 1 1 1 1 1 1 3 3 2 1 0 1 1 2 2 2 2 0 1 2 3 4 4 5 1 2 9 13 13 13 10 11 12 10 11 11 11 9 8 7
19 19 19 18 18 17 17 16 16 16 15 11 7 5 3 2 4 2 2 4 3 3 4 1 1 2 2 3 3 2 4 5 2 1 9 11 8 13 13 5 5 7 4 2 1 1 1 0 1 1 1 1 1 3 4 3 3 4 2 2 1 2 2 3 2 1 1 1 3 4 6 9 3 3 9 12 12 13 10 10 10 10 10 10 10 10 10 10
19 19 19 18 18 17 16 16 16 16 15 10 5 4 3 4 4 3 3 3 3 2 2 2 3 2 2 2 3 5 6 5 3 2 10 13 10 10 8 6 8 7 4 2 1 1 1 1 1 2 2 2 4 4 4 2 3 5 3 2 2 2 3 4 3 1 1 2 5 6 7 10 6 5 10 12 12 11 10 9 8 9 10 9 10 10 10 11
19 19 18 18 18 17 16 16 16 16 15 9 3 2 2 2 1 1 2 3 5 4 5 3 6 3 5 4 4 4 3 1 2 3 11 14 12 9 3 4 5 2 2 3 2 2 1 2 2 3 4 5 5 3 3 3 3 4 3 2 2 2 3 4 2 2 2 3 4 5 8 9 6 4 9 11 11 11 11 10 10 10 10 9 11 11 11 11
20 19 18 18 18 18 17 15 16 15 13 7 2 0 1 0 1 2 1 5 7 8 9 8 8 7 7 4 1 3 2 1 2 2 11 13 12 9 1 1 3 2 1 0 2 2 1 3 3 5 5 3 3 4 5 4 3 2 2 2 2 3 4 3 1 1 2 3 2 1 5 6 1 1 7 10 11 11 11 11 10 10 10 9 12 12 11 9
20 20 19 19 18 17 17 15 16 15 10 5 2 2 2 1 0 2 2 5 7 9 12 10 6 8 9 7 6 1 2 1 2 1 9 11 7 6 2 1 3 3 0 0 3 2 2 4 6 4 4 5 4 4 4 4 3 2 2 2 2 2 4 2 1 1 1 2 2 1 3 2 2 0 5 9 10 8 8 10 9 9 9 9 11 11 10 9
20 20 20 19 18 18 16 15 16 12 5 3 4 3 2 2 5 5 2 4 7 5 8 7 5 7 7 6 8 7 4 4 3 2 9 10 3 3 4 3 3 3 2 3 4 3 3 3 4 4 7 6 4 3 4 4 2 2 2 2 2 1 1 1 1 1 1 1 1 3 3 1 3 2 4 5 5 2 3 6 6 8 10 10 10 10 9 10
21 20 21 20 19 17 15 16 13 5 3 7 9 5 1 6 8 3 3 3 5 2 4 6 5 6 6 4 9 12 5 4 4 3 10 11 4 3 4 3 3 3 3 4 4 4 3 1 2 6 5 5 4 4 5 4 2 2 3 4 3 2 4 3 1 1 0 1 1 3 3 1 2 3 4 3 2 2 2 4 6 8 9 9 9 10 10 11
21 21 21 21 20 17 16 13 5 1 8 12 8 3 4 12 8 3 3 2 3 3 2 4 3 5 6 4 10 11 3 3 5 4 10 11 7 5 2 2 3 3 3 4 4 4 4 1 5 5 3 3 4 3 5 5 3 2 5 9 6 3 3 2 0 2 2 2 2 1 2 2 2 2 5 4 4 6 3 4 8 9 9 10 10 11 11 10
22 22 21 21 20 19 14 6 2 5 11 8 4 2 9 15 5 7 2 2 2 3 1 2 1 5 7 5 7 6 4 3 4 5 10 12 10 5 3 2 1 2 4 4 2 2 1 3 3 4 3 4 4 3 5 6 4 2 4 8 7 2 1 2 2 2 2 1 2 2 1 2 2 1 2 3 7 9 5 6 8 9 11 12 11 12 12 11
23 23 22 20 20 17 9 3 6 9 7 4 3 4 13 13 3 8 1 2 2 2 1 0 1 5 5 5 7 5 3 2 3 6 7 10 9 2 2 4 1 1 3 2 2 2 3 4 2 3 4 4 4 3 6 8 6 2 2 6 8 5 4 3 2 1 0 0 1 2 2 2 3 2 0 2 6 9 9 10 9 8 10 11 11 11 12 12
25 25 23 21 18 13 7 8 9 6 5 5 4 8 14 6 7 6 1 1 1 0 1 0 1 4 2 3 6 3 1 2 4 3 3 8 7 2 2 6 4 4 3 3 5 1 3 4 4 4 3 2 4 3 7 11 4 0 2 5 6 4 3 2 2 2 1 1 3 1 3 1 2 2 1 3 5 7 8 10 10 10 10 11 11 11 11 11
27 26 23 21 18 13 8 9 8 6 8 8 7 12 11 2 6 1 2 0 2 1 1 1 2 3 2 3 5 4 2 1 2 1 2 5 4 2 2 4 4 4 2 2 4 0 1 3 4 5 2 3 3 1 7 10 3 1 5 6 6 4 3 2 1 2 1 2 3 2 4 1 3 1 1 2 2 2 3 4 6 8 9 10 10 10 10 10
30 27 23 20 16 11 6 9 13 10 10 9 9 13 5 5 2 1 1 2 2 1 1 1 1 1 4 5 4 4 2 2 2 3 2 2 1 2 1 2 4 3 1 1 2 1 1 1 1 3 3 2 3 3 2 2 2 5 5 6 6 3 2 2 2 1 1 2 1 2 4 1 3 2 1 1 1 1 3 3 2 2 5 7 9 9 10 9
31 28 23 18 14 9 3 6 9 5 2 5 11 9 0 2 2 2 2 2 1 1 1 0 0 2 5 5 3 3 2 1 2 5 4 2 2 2 1 2 3 2 1 1 2 1 2 1 1 2 1 3 5 5 2 2 3 3 2 3 4 2 2 1 2 0 3 3 1 2 3 2 3 2 1 2 2 2 4 5 6 6 6 5 6 8 9 9
32 27 23 17 12 12 10 7 6 4 4 8 11 4 3 1 1 3 2 2 1 1 1 0 1 1 2 2 2 3 3 1 2 4 5 4 4 4 3 4 3 2 2 3 2 1 2 3 2 2 1 3 3 4 3 1 1 1 2 4 3 1 1 2 1 1 3 2 2 1 1 1 1 0 2 4 5 5 4 6 7 9 8 7 5 7 7 6
30 26 20 14 10 14 16 13 12 12 13 10 6 2 3 1 3 4 3 2 1 1 1 1 2 0 2 1 2 2 2 2 3 3 3 2 4 4 2 1 3 2 1 2 2 1 2 2 1 1 2 3 5 4 3 3 3 4 4 4 4 3 2 2 1 1 3 1 2 1 1 1 1 0 3 5 6 6 6 6 6 6 9 8 5 4 6 5
28 22 15 9 6 8 11 12 12 11 9 5 0 3 3 3 3 2 3 3 1 2 1 0 2 1 2 2 2 2 2 3 4 4 3 3 3 4 2 1 2 1 1 2 2 2 3 2 2 3 1 2 6 5 3 4 4 3 1 2 4 4 3 3 3 3 3 1 2 1 2 2 3 1 2 4 5 5 5 6 5 3 3 3 1 4 6 6
24 16 7 5 8 12 13 9 8 7 4 1 2 2 4 4 2 1 2 2 1 2 2 1 1 1 1 1 2 1 2 3 3 4 4 4 4 4 3 5 5 2 2 3 2 1 1 3 2 1 1 2 4 2 3 4 4 1 1 2 2 3 3 1 0 1 1 1 1 2 2 1 1 0 2 3 3 4 6 7 6 5 4 5 7 7 8 8
20 9 2 6 15 18 13 7 6 9 6 2 2 3 3 2 2 2 2 1 1 1 3 1 1 1 1 1 1 0 0 1 2 3 3 3 3 3 3 3 5 6 4 3 2 1 1 2 1 1 0 0 2 1 2 0 2 3 2 4 1 0 3 3 2 2 1 2 2 1 0 0 1 1 1 2 1 3 6 6 6 6 6 8 8 8 9 10
18 6 3 10 22 20 11 3 11 13 5 2 4 4 2 2 3 3 1 1 2 1 1 0 0 0 1 1 1 0 0 1 1 2 3 2 2 3 3 2 4 8 6 2 1 2 2 1 1 1 2 2 2 2 4 3 1 3 3 5 4 2 2 2 2 2 0 3 2 1 0 1 3 3 1 1 1 4 5 5 6 5 6 8 8 9 11 11
13 4 1 12 24 18 6 6 16 12 3 2 4 3 2 2 2 2 0 1 1 2 2 1 1 1 0 1 1 1 1 1 1 1 2 2 1 2 3 2 4 5 4 2 1 1 1 2 1 0 1 2 2 2 4 3 3 1 2 4 3 2 2 2 2 3 4 3 2 2 1 2 2 1 2 4 5 6 5 5 6 6 7 8 7 8 9 9
7 1 1 15 23 11 4 13 15 7 1 4 4 2 2 2 2 2 1 1 1 1 0 1 1 1 0 1 1 1 1 2 2 1 1 2 1 1 0 1 3 2 2 3 3 1 1 2 1 0 1 1 2 1 3 3 4 3 3 3 1 1 2 2 1 2 4 4 2 2 2 2 1 2 5 7 8 8 5 4 5 5 6 6 4 4 4 5
3 1 2 15 16 8 11 11 7 2 2 3 3 1 1 2 3 3 3 1 1 1 1 1 1 1 1 1 1 1 1 0 2 1 1 0 0 1 1 1 2 1 1 2 2 1 1 1 2 0 1 2 1 1 2 2 2 2 3 4 1 1 1 1 1 1 1 3 3 3 3 2 2 3 6 8 8 7 5 2 4 5 5 5 5 4 5 5
2 1 3 13 8 7 5 2 2 1 2 0 0 2 0 1 1 2 1 1 2 1 0 2 2 1 1 1 1 1 1 1 0 1 2 1 0 0 1 1 1 0 1 3 2 2 1 1 2 0 0 1 1 2 2 2 1 2 2 3 3 3 3 3 3 1 1 1 2 3 4 2 2 3 5 7 8 7 4 1 5 6 6 7 6 6 7 7
2 1 6 13 4 2 6 0 1 2 2 0 1 2 1 1 1 2 1 1 1 1 1 1 3 2 2 2 2 2 1 1 1 1 1 2 2 1 3 3 1 1 1 2 1 1 2 2 2 1 0 1 1 1 0 0 0 1 1 1 2 2 2 3 4 3 1 1 1 1 2 2 3 5 5 5 6 5 2 3 7 7 7 7 7 7 8 7
2 0 8 17 4 6 3 2 1 2 0 2 2 1 1 0 1 2 1 2 1 0 1 1 2 1 2 2 2 3 2 2 1 1 1 1 3 2 3 4 2 2 1 1 1 0 1 1 2 1 0 1 1 1 1 2 1 2 3 3 0 0 1 2 1 2 3 3 2 2 3 2 3 5 5 5 5 5 5 5 8 8 7 7 8 7 7 7
2 2 4 17 12 2 1 2 1 2 2 3 2 2 2 1 2 2 1 2 3 1 1 1 0 1 1 0 0 1 1 2 1 1 0 2 2 1 3 4 1 1 2 0 1 1 0 1 1 3 2 1 1 2 1 1 1 1 2 2 2 2 3 3 2 1 2 2 2 3 3 2 3 4 6 7 7 7 8 7 7 8 7 7 7 7 7 7
2 0 2 11 17 9 3 1 2 2 3 3 3 5 5 2 2 2 2 3 3 2 1 1 1 1 1 1 1 2 2 0 0 1 1 2 1 1 4 5 2 2 2 4 5 2 1 1 1 2 5 5 4 2 1 1 1 1 2 3 4 2 1 2 3 3 3 2 2 2 2 4 2 5 8 9 8 8 8 8 8 8 8 7 7 7 7 8
1 2 2 4 8 6 3 1 2 2 2 2 2 5 5 3 2 3 3 4 4 3 2 3 3 2 1 2 2 2 4 2 1 2 2 2 1 2 4 5 4 4 5 9 8 4 3 2 4 3 1 2 2 1 2 1 1 1 2 4 5 4 4 1 2 3 3 4 3 1 2 6 3 7 8 8 8 8 8 8 8 8 8 8 7 7 8 8
1 1 2 2 3 3 3 4 6 5 4 2 2 4 6 5 3 3 3 4 4 4 2 3 6 4 1 1 2 2 3 3 4 4 2 2 1 1 3 2 5 7 4 5 4 3 4 3 4 5 7 5 3 2 3 3 4 3 2 4 5 5 4 1 2 2 2 4 3 0 3 5 3 6 6 7 8 7 8 8 8 7 8 8 8 9 11 11
2 1 1 2 2 2 3 5 6 7 8 5 2 3 7 8 7 5 4 2 4 5 3 3 9 9 4 1 2 2 3 3 5 4 2 3 2 2 3 2 4 7 5 2 2 3 5 2 2 3 6 7 5 5 6 7 6 4 4 4 5 7 6 4 3 3 2 1 3 5 6 6 4 4 5 6 6 7 8 8 7 8 9 10 11 12 13 13
2 1 1 1 1 2 2 3 5 6 9 7 4 5 9 11 10 7 5 3 3 7 5 3 7 10 8 3 2 3 3 3 4 3 2 3 3 2 3 2 2 6 5 3 2 2 4 2 2 4 4 5 5 5 4 6 5 5 6 6 5 6 8 7 5 4 5 6 6 10 12 9 4 3 4 5 4 5 7 7 9 10 11 12 13 13 13 14
1 1 2 1 2 3 2 3 4 3 6 6 5 6 8 9 9 7 6 5 4 5 6 4 4 7 7 8 6 6 4 3 2 2 2 1 2 2 2 1 2 5 5 3 2 1 2 3 4 4 3 1 3 5 5 5 6 5 5 5 4 5 6 6 5 5 7 8 7 9 12 8 3 2 4 3 3 5 9 11 11 10 10 12 14 14 14 13
2 1 0 1 2 4 3 3 3 2 4 5 5 5 6 8 9 6 3 6 6 4 5 5 5 4 4 9 9 6 4 4 4 4 3 2 2 2 1 1 2 4 4 3 1 2 2 4 3 3 3 3 1 2 2 5 6 4 2 1 3 3 2 3 3 2 2 6 8 7 7 5 4 4 5 5 6 9 12 11 10 9 10 13 14 14 13 12
3 1 1 1 1 4 3 2 4 3 3 4 4 4 3 5 9 6 2 3 6 7 5 5 4 2 4 9 9 6 6 6 7 7 5 4 3 2 2 1 1 2 3 2 1 1 2 5 5 4 4 3 2 4 4 3 2 3 3 1 2 2 3 3 4 4 3 2 5 3 5 7 6 5 6 8 10 11 10 8 8 9 10 12 12 12 12 11
Wind_Direction
334 331 328 327 324 322 320 319 318 316 316 315 315 315 315 317 318 323 325 322 321 320 319 320 320 320 318 318 319 311 307 309 307 293 250 266 285 232 217 192 174 164 152 146 150 146 135 145 146 144 147 142 333 152 155 149 146 179 184 210 218 182 176 185 192 189 167 342 340 354 1 23 28 92 130 95 78 90 84 59 59 57 68 99 121 135 141 146
337 333 330 327 324 322 320 320 318 314 314 313 313 313 314 315 317 322 324 322 321 320 322 321 319 319 319 322 321 311 313 312 297 271 254 273 273 222 206 173 168 167 159 153 158 154 148 153 148 141 139 154 45 122 175 170 181 186 151 222 217 177 182 197 198 193 211 308 328 335 2 6 352 155 178 160 115 116 98 73 82 90 98 112 127 134 139 148
341 338 334 329 325 321 320 320 316 313 312 311 310 312 315 316 317 319 322 322 322 322 320 319 319 320 322 323 319 314 314 311 290 252 248 16 207 206 181 163 169 169 165 161 162 167 169 160 154 147 124 150 102 142 171 159 195 181 183 232 205 199 242 219 210 224 234 283 315 324 96 353 335 193 220 169 142 160 158 139 140 138 139 136 138 139 144 151
346 343 339 333 327 321 320 318 315 312 310 309 308 311 312 315 318 317 321 323 323 322 318 317 319 321 323 318 316 318 315 296 262 200 76 32 114 184 171 160 163 167 170 162 157 164 159 148 145 136 122 149 67 169 171 173 190 159 203 223 147 176 240 230 211 222 234 248 287 315 321 334 15 166 199 163 153 197 210 191 183 171 162 153 148 149 152 154
350 347 344 338 330 323 320 317 314 312 309 307 307 310 310 314 318 317 319 321 321 322 320 319 320 324 322 317 321 322 316 229 162 338 356 10 50 169 166 158 156 160 162 155 148 146 141 133 129 118 118 152 143 175 178 173 161 161 205 204 136 159 228 259 236 205 217 232 254 308 329 339 23 259 179 174 176 186 221 214 204 175 165 162 157 156 160 162
354 351 348 343 336 328 321 318 315 312 309 307 307 310 310 311 314 315 318 319 320 321 323 323 323 325 321 320 327 325 314 265 280 301 318 343 109 163 162 158 154 151 152 147 142 145 138 113 144 152 129 135 162 177 169 155 184 207 205 195 199 186 225 260 265 190 182 227 269 286 329 351 328 322 176 204 241 325 313 241 192 172 168 165 159 160 166 169
356 355 352 349 344 335 327 321 317 313 309 306 307 308 309 310 311 313 315 319 321 323 323 324 325 323 327 330 323 333 333 274 296 314 312 321 166 163 162 160 156 151 150 144 139 145 131 130 160 157 137 132 178 186 156 135 190 230 207 214 216 193 223 239 231 232 188 230 262 316 308 286 225 277 171 212 272 327 304 204 166 162 164 165 164 168 170 172
357 356 355 353 349 343 335 326 321 316 310 307 307 309 310 310 311 312 315 320 322 325 323 325 330 324 335 347 331 332 263 261 313 322 314 315 168 168 163 159 160 157 155 155 153 151 145 154 161 162 160 146 180 173 151 150 171 223 212 214 198 192 230 244 252 261 247 240 237 211 271 272 198 185 183 198 22 8 110 145 149 154 160 168 173 173 172 174
357 357 356 355 353 349 342 333 326 318 313 309 307 308 308 307 310 313 315 320 322 324 325 325 326 323 337 352 344 299 252 309 345 335 331 356 171 171 167 164 168 165 157 158 156 155 162 173 172 187 186 137 172 165 163 194 195 210 204 205 216 234 261 255 257 257 259 246 168 197 251 280 171 196 190 146 70 114 140 141 147 154 162 171 177 178 177 179
357 358 358 356 355 353 348 340 330 322 316 309 306 304 303 304 306 311 312 315 324 323 323 327 322 320 338 344 242 308 308 16 13 19 35 140 172 171 173 172 172 167 155 150 151 156 175 196 179 187 167 126 166 161 169 194 166 176 185 216 233 273 300 257 261 255 285 253 189 210 253 66 340 238 203 132 127 150 145 148 154 158 168 172 177 183 183 186
358 359 358 356 354 354 352 346 335 326 318 310 307 302 302 306 304 308 309 309 319 316 314 332 330 327 353 10 183 261 256 12 8 17 44 146 178 180 185 181 176 171 156 146 174 179 184 184 166 166 164 152 162 157 196 192 130 157 177 235 250 294 278 234 264 261 247 247 195 196 178 92 120 246 227 145 147 160 151 153 161 164 171 174 180 185 186 192
359 358 358 357 354 353 352 349 342 331 323 317 310 307 307 305 301 299 301 309 318 318 318 334 318 321 11 344 218 238 250 296 328 346 49 157 188 194 195 188 183 183 172 164 197 197 190 143 169 175 127 158 162 161 190 175 137 149 159 260 280 325 264 214 259 258 203 228 159 163 173 142 181 191 147 151 155 160 158 160 166 169 175 179 182 185 188 191
358 357 358 358 355 354 352 350 346 336 326 319 313 311 305 297 297 292 291 306 313 310 302 292 306 328 31 255 227 257 281 287 300 312 191 184 196 198 195 188 186 192 190 181 188 197 193 166 146 106 132 167 166 149 141 113 246 165 127 289 289 313 251 191 77 131 184 208 150 174 225 211 202 184 145 160 162 160 162 168 173 175 181 183 183 184 185 181
356 357 357 357 355 354 353 351 349 342 330 323 317 310 306 300 294 289 292 300 296 287 238 200 318 71 104 261 263 290 294 286 277 260 213 189 174 163 178 182 183 189 191 176 157 192 204 205 43 92 172 245 38 287 121 47 21 142 141 159 319 248 207 181 141 159 179 181 159 194 237 229 218 179 160 170 169 166 170 175 180 181 183 187 184 181 176 168
355 356 355 355 354 352 353 351 350 345 334 324 318 313 307 299 292 287 291 284 278 249 168 158 250 99 295 278 286 293 279 285 268 244 223 198 172 142 160 171 176 183 184 174 125 130 201 201 352 117 201 329 134 196 225 54 48 57 185 176 156 225 223 295 217 198 206 79 155 205 226 241 250 151 160 172 175 176 179 179 183 185 185 190 186 181 175 160
355 354 352 352 352 351 351 350 350 347 340 329 320 318 303 290 300 300 284 260 249 181 152 129 177 178 272 283 329 313 263 273 276 256 216 199 191 153 148 153 156 166 172 185 166 86 154 167 101 13 95 148 161 141 133 134 99 50 250 194 169 197 233 303 173 226 253 98 172 222 236 236 271 121 164 171 178 181 185 184 185 187 188 191 190 184 175 158
352 350 348 348 349 349 348 347 348 346 346 338 327 323 302 289 100 343 65 122 161 170 160 127 103 186 263 280 310 303 270 278 288 259 183 187 198 154 139 135 137 142 138 156 167 106 121 148 40 40 67 79 137 157 163 179 185 165 258 175 182 209 214 250 175 204 278 164 197 213 225 229 268 93 170 174 180 184 187 187 185 189 191 194 196 192 185 177
349 347 346 345 346 347 345 345 343 343 347 342 337 344 339 98 121 143 109 123 117 126 152 139 143 213 259 265 294 291 296 292 280 155 162 167 174 150 137 132 129 126 125 91 98 152 163 354 328 154 110 73 159 186 184 192 183 168 174 162 178 222 215 259 242 125 111 209 215 184 214 235 224 134 175 179 184 188 189 187 186 191 193 193 199 202 200 200
347 346 345 344 343 344 344 342 338 339 342 338 343 16 55 105 123 139 117 127 139 166 237 202 186 277 310 249 283 294 296 285 249 184 155 157 160 147 122 120 129 125 142 143 135 176 162 137 156 170 179 184 187 196 187 173 147 147 155 161 177 223 237 252 253 232 185 224 228 202 214 230 212 173 182 184 186 192 192 187 190 194 192 191 200 208 208 209
347 345 344 342 342 341 341 339 335 334 337 338 352 36 78 98 108 146 138 194 210 246 280 218 189 255 294 269 289 300 292 266 248 176 161 163 159 151 101 97 126 113 135 150 147 150 185 171 178 199 196 195 200 187 133 115 116 126 130 161 202 242 258 251 242 298 262 238 240 212 220 232 218 183 186 184 186 195 195 191 196 199 194 195 204 211 211 213
345 345 343 342 340 339 339 335 332 329 331 343 4 290 254 107 358 334 286 238 227 229 250 231 197 225 252 252 312 41 37 321 311 151 163 165 155 157 162 50 141 141 127 173 121 111 198 184 213 221 196 178 173 145 120 115 110 123 154 199 231 224 252 262 147 328 296 240 244 154 218 233 244 204 187 183 192 199 200 198 199 200 199 203 210 214 214 215
344 344 342 341 339 338 338 332 328 323 321 339 347 269 256 197 287 313 296 278 254 215 229 238 218 245 250 246 252 264 23 277 283 171 161 157 158 175 164 91 161 151 100 174 129 124 183 204 230 213 144 104 104 132 135 124 121 128 156 230 235 207 256 279 109 7 33 221 254 134 202 236 32 6 184 188 201 205 207 208 206 201 202 211 213 213 212 213
341 342 341 340 338 337 338 330 322 316 307 307 284 249 220 296 308 292 246 289 282 214 215 225 216 237 238 246 234 196 191 209 203 207 172 161 161 180 151 139 162 133 145 182 170 169 178 227 237 163 139 127 106 127 135 117 142 174 165 216 234 165 230 215 119 33 38 294 267 145 148 47 55 119 171 199 202 179 196 202 202 206 211 219 219 214 211 212
340 341 340 338 336 338 339 327 317 313 314 303 282 245 221 331 323 280 189 264 285 266 218 205 200 219 220 229 188 174 185 200 186 200 177 166 134 144 163 146 147 148 175 181 165 192 213 237 112 123 144 152 122 138 160 157 188 212 209 216 227 208 212 228 87 67 232 25 70 131 140 115 87 136 179 203 179 160 156 173 192 206 218 227 224 218 216 218
341 341 338 337 336 337 338 326 302 318 321 304 277 235 350 338 330 178 174 300 273 283 248 188 200 215 197 167 166 168 164 189 212 199 172 169 145 140 161 132 174 187 168 150 145 217 241 159 134 132 132 156 144 167 192 188 186 217 220 216 221 204 199 250 276 158 187 136 67 351 179 155 80 133 183 186 205 212 188 194 208 201 209 222 224 222 219 222
341 340 337 335 334 336 340 326 232 318 316 294 235 243 339 336 322 169 165 354 266 282 272 164 229 191 167 152 163 160 144 186 220 171 166 172 155 138 146 128 267 199 155 150 155 237 229 120 144 149 138 168 180 212 207 188 180 203 213 204 202 177 142 235 222 181 198 128 56 329 263 158 105 109 173 183 210 217 209 215 216 201 205 216 222 223 219 219
342 340 335 331 331 338 341 288 293 311 299 265 230 302 331 330 197 167 177 350 271 275 156 98 273 179 170 171 174 165 158 155 128 147 171 175 160 114 173 166 176 174 149 154 182 216 153 123 108 123 121 158 191 225 198 181 180 185 175 168 172 186 207 203 181 134 19 57 104 345 336 161 144 124 173 202 200 215 226 225 219 208 206 212 216 215 213 213
340 338 333 327 327 329 305 280 294 281 255 274 275 308 328 324 168 165 352 347 286 308 152 8 118 166 161 158 186 207 311 122 133 164 188 173 166 48 192 197 191 168 151 179 196 178 145 174 176 151 123 174 207 217 176 176 192 256 128 140 150 167 179 167 153 109 51 241 182 57 359 187 154 118 181 198 190 204 222 226 223 217 208 208 213 211 206 207
338 335 329 324 323 320 295 266 258 257 281 289 294 315 325 166 159 118 50 225 269 45 101 130 128 154 107 119 218 262 336 34 139 143 125 162 176 49 172 194 155 144 121 210 217 209 154 216 181 159 182 220 218 188 169 177 198 143 131 104 91 88 81 81 97 111 91 237 191 36 349 215 169 150 175 175 174 201 241 236 223 224 221 212 210 210 206 201
336 333 327 323 316 310 293 257 259 282 291 281 304 323 323 151 133 45 121 259 273 52 70 181 160 140 127 136 226 256 281 329 68 107 109 141 135 48 99 126 102 139 131 344 257 258 359 340 134 180 221 190 115 75 144 170 120 149 139 97 88 68 41 52 36 56 178 212 169 8 338 280 187 185 182 169 111 333 309 305 289 273 255 229 214 210 206 201
334 331 326 316 300 287 271 257 275 306 286 292 325 328 175 124 44 128 191 257 261 357 29 189 354 118 147 156 206 224 219 319 96 139 145 140 132 96 135 136 95 122 162 280 256 288 335 273 209 235 197 129 110 90 45 22 106 152 140 114 125 72 31 88 33 320 203 193 105 21 330 271 209 171 138 295 324 323 288 292 308 312 298 262 227 213 205 202
332 331 324 310 284 254 240 244 267 281 279 315 335 335 147 122 212 191 243 286 293 11 60 248 291 115 155 187 193 186 181 174 165 158 151 154 166 168 185 182 162 159 203 222 220 343 273 226 267 314 195 172 144 108 92 68 125 154 128 139 161 143 149 195 206 206 221 216 80 37 302 236 237 267 300 309 332 335 303 291 295 296 291 277 247 218 206 195
331 331 323 311 278 249 257 268 266 270 283 299 325 49 105 155 214 207 239 267 15 22 104 220 292 327 154 187 193 177 167 185 188 175 153 144 170 186 204 158 163 170 191 193 177 200 236 240 293 250 209 192 183 165 154 171 191 183 159 161 175 153 153 193 184 218 253 229 89 40 261 191 159 278 284 303 333 336 323 309 297 286 280 282 278 213 183 166
331 331 325 328 322 294 302 298 269 263 278 279 210 92 128 185 225 211 218 246 293 334 331 317 325 309 172 198 235 185 187 207 177 164 163 148 174 198 201 185 187 160 91 149 172 186 209 233 202 193 177 165 190 196 152 139 159 176 148 155 176 168 175 207 200 199 214 170 91 137 201 184 147 131 300 306 324 336 348 345 336 328 299 295 16 129 136 125
333 333 332 15 7 346 337 315 266 233 219 176 105 130 174 195 234 201 203 243 266 314 326 359 358 293 192 272 294 211 211 223 161 153 165 161 178 187 180 197 199 166 139 179 201 134 203 253 252 272 329 175 201 193 104 116 134 127 71 147 184 189 157 141 189 169 187 154 130 183 215 298 117 93 318 302 314 354 16 12 7 22 48 76 88 99 108 110
337 347 64 24 356 344 335 311 218 191 186 148 143 188 198 216 217 175 183 167 113 357 314 328 86 229 254 278 298 6 296 200 141 163 180 174 187 180 182 204 188 180 177 176 192 154 154 254 294 345 110 174 269 193 114 212 161 134 174 177 178 71 118 117 115 52 9 202 181 145 209 219 164 156 225 217 161 48 35 26 25 34 64 83 89 99 104 109
340 3 98 1 348 341 330 257 174 169 168 154 182 201 217 225 195 181 201 92 104 67 358 322 357 258 265 279 267 329 98 122 108 188 184 176 195 178 188 212 180 194 200 173 209 221 198 221 342 25 122 54 314 153 88 22 92 143 179 166 136 71 78 113 148 98 133 208 189 88 104 206 184 162 142 174 91 56 49 55 54 50 77 90 95 111 118 123
338 358 105 353 345 336 320 172 161 155 137 177 198 223 216 204 197 192 198 70 99 47 67 201 296 355 355 274 282 328 279 189 143 177 179 186 220 166 172 195 175 199 212 170 186 233 201 226 322 296 186 24 340 161 113 59 24 40 148 135 135 187 172 154 161 157 179 197 176 136 192 249 203 138 4 341 350 4 18 53 65 61 83 95 101 119 127 127
345 17 36 352 346 339 145 151 153 143 118 185 199 223 203 217 261 235 217 78 117 87 45 225 264 359 304 264 272 318 302 213 159 134 178 198 218 159 123 206 167 198 254 182 178 132 121 233 233 146 289 338 357 222 176 130 55 52 114 113 18 284 175 172 154 168 188 189 161 152 193 220 175 359 327 312 328 343 350 39 69 73 86 91 84 84 76 77
3 120 29 2 10 71 117 137 145 131 175 184 201 200 187 239 265 253 224 218 192 191 245 194 174 296 256 279 269 261 329 276 151 140 171 173 285 193 288 296 154 176 333 148 166 121 81 213 213 5 323 233 186 341 245 187 117 117 153 156 143 66 111 175 98 43 199 177 159 172 194 181 84 359 308 297 309 322 324 33 84 78 76 67 48 42 40 56
7 109 6 359 26 87 74 128 139 79 176 146 352 193 267 251 261 306 246 218 233 232 261 175 187 250 239 263 261 221 333 326 191 150 155 140 350 304 329 327 157 139 97 113 142 165 124 169 190 170 8 186 79 21 315 265 220 175 179 177 157 129 147 168 164 163 333 160 164 182 190 158 50 352 313 303 304 308 303 150 99 76 70 66 50 44 43 46
28 98 357 354 330 271 352 130 169 20 166 255 325 211 294 296 234 311 15 48 276 251 17 204 210 230 211 226 247 212 241 262 207 205 183 163 166 168 353 353 36 70 108 121 125 168 130 117 122 88 21 225 335 3 98 343 117 122 72 118 144 138 150 176 190 179 138 137 141 164 202 154 48 357 334 322 320 330 337 127 105 82 72 71 61 52 55 62
46 140 4 8 344 236 341 70 237 351 163 293 310 234 300 343 296 315 54 35 341 328 6 255 207 223 214 232 234 201 219 229 189 229 237 135 147 168 339 339 1 40 29 54 8 255 122 84 89 93 311 298 299 213 124 74 101 98 51 49 107 196 99 128 166 154 152 159 145 168 204 149 56 5 351 352 3 31 46 71 92 91 79 70 67 62 65 75
31 218 355 19 31 146 98 43 323 333 318 312 352 27 345 8 24 347 62 36 14 34 335 276 134 336 291 356 139 176 215 219 157 2 304 93 110 130 10 345 305 55 10 61 165 219 261 23 94 126 136 144 169 198 193 117 62 63 59 19 344 44 94 114 96 116 176 179 166 193 192 127 62 17 18 18 26 48 46 45 69 82 78 72 69 64 59 59
14 183 250 13 34 61 86 14 294 302 308 321 27 20 353 354 11 352 68 61 30 39 358 318 355 334 333 50 91 52 22 346 36 7 36 59 34 38 14 353 6 116 115 116 116 105 69 37 359 171 175 179 177 179 189 170 108 66 59 19 8 21 71 132 130 161 196 174 161 218 171 127 83 22 23 19 23 41 40 41 59 66 68 69 64 58 54 54
34 35 296 336 23 49 70 36 7 344 311 312 39 18 352 338 326 335 64 66 31 33 41 4 349 332 359 38 100 64 19 2 55 73 51 13 10 31 354 350 32 71 102 111 108 101 93 61 5 9 99 145 143 83 340 300 111 61 28 20 13 342 313 315 137 168 176 148 152 300 114 136 99 12 15 20 27 39 37 37 53 61 64 67 64 62 60 59
91 42 353 331 348 16 33 28 22 9 340 333 37 10 352 355 356 347 24 53 42 37 54 36 25 22 340 342 106 79 7 6 41 50 25 336 315 307 319 359 34 10 23 100 92 80 96 66 360 26 45 46 64 71 45 60 78 66 21 3 3 351 334 353 102 118 141 149 170 209 102 124 79 14 20 29 32 48 53 47 54 61 64 68 66 63 61 58
50 140 290 322 341 356 8 3 0 8 12 17 48 16 7 20 33 20 351 7 41 24 18 44 27 19 358 281 141 74 1 18 42 21 347 350 344 320 336 56 39 359 358 39 11 76 109 83 338 46 52 48 54 61 71 82 86 79 49 20 11 16 25 50 44 349 294 173 149 129 108 101 87 52 40 37 41 61 65 59 62 66 68 69 65 61 59 56
46 94 295 333 47 16 350 331 334 4 19 19 31 29 21 24 28 20 348 336 22 11 14 52 16 10 20 27 101 80 14 28 57 27 358 2 359 5 15 36 12 359 17 58 21 75 117 128 149 114 60 25 12 9 43 75 81 71 47 29 28 49 59 68 59 37 56 74 97 113 105 94 91 77 54 53 62 75 74 67 65 65 65 67 66 62 59 57
54 87 314 39 62 9 346 332 332 12 21 11 18 21 20 21 13 6 10 23 26 356 4 37 1 357 34 48 68 83 38 6 30 15 352 359 8 30 39 35 347 350 6 50 26 12 97 157 167 129 94 325 336 352 359 37 61 65 57 45 35 44 61 78 85 77 77 82 92 100 98 95 86 64 74 86 90 81 75 67 62 60 61 67 68 62 59 57
30 182 310 101 49 1 352 341 343 33 26 10 12 6 11 15 356 344 29 46 47 25 353 342 328 321 41 50 54 62 17 321 279 286 295 307 346 5 35 40 348 337 356 32 4 343 76 126 155 129 147 200 182 57 23 25 30 3 333 59 38 24 50 79 79 51 93 127 129 113 100 111 121 108 99 95 85 78 72 66 64 60 57 63 66 62 58 55
6 173 45 101 77 8 352 343 1 37 36 6 6 3 4 355 340 340 54 38 28 36 5 329 328 339 33 34 24 356 323 287 264 274 276 262 275 296 312 333 334 324 337 20 26 350 111 141 156 164 169 170 109 113 113 77 27 301 297 354 61 86 123 105 61 21 354 154 153 139 123 128 133 129 108 88 78 73 68 61 61 59 57 59 60 58 56 50